Wind_Speed
50 51 53 54 56 57 58 59 60 60 61 62 63 64 65 65 65 66 67 68 67 67 67 68 68 68 69 68 68 67 67 67 66 66 66 66 66 66
55 57 58 59 60 61 61 62 62 62 63 63 64 64 65 65 65 65 65 64 64 65 65 65 65 64 63 63 62 62 62 62 62 62 61 62 62 62
60 61 61 62 62 62 62 63 62 62 62 62 63 63 63 63 63 63 62 62 62 61 60 60 59 58 57 56 57 56 56 56 56 56 56 56 56 56
62 62 62 62 62 62 62 61 61 61 61 60 60 60 60 61 60 60 59 58 57 56 56 55 53 52 52 51 51 51 51 51 50 51 51 50 50 51
61 61 62 61 61 61 60 59 59 59 58 57 57 57 57 57 56 56 55 53 53 52 51 49 47 46 45 45 45 45 45 45 45 45 45 45 45 46
61 60 59 58 58 58 57 57 57 56 55 54 53 53 53 52 51 49 48 48 47 46 44 41 40 39 39 39 39 39 39 40 40 40 40 40 40 40
58 57 55 55 55 55 55 54 53 51 50 49 48 47 46 46 44 43 42 40 39 37 36 36 35 34 34 35 35 35 35 36 36 36 36 36 36 36
55 54 53 52 51 50 49 48 46 44 43 43 41 40 39 38 37 36 34 33 32 31 31 32 32 32 32 33 33 33 33 33 33 33 33 33 34 34
52 50 48 47 45 44 43 41 40 39 37 35 34 33 32 32 31 30 29 28 28 27 27 29 30 31 31 31 31 31 31 31 31 30 30 31 31 31
46 44 42 40 39 37 36 35 34 33 31 30 29 28 27 26 25 25 24 25 26 27 26 27 28 29 30 30 29 29 29 29 29 28 28 28 27 27
39 37 36 34 32 31 30 29 28 26 25 24 23 21 20 21 21 22 23 24 25 27 27 27 28 28 29 29 28 28 27 26 26 25 25 24 23 23
31 30 27 26 25 24 23 22 20 19 19 18 17 17 18 19 20 21 22 23 24 25 26 26 27 26 27 28 27 26 24 23 22 21 20 20 19 19
23 21 19 18 17 17 15 14 14 14 14 14 15 16 17 19 20 21 22 23 24 24 25 25 25 26 25 25 24 23 21 19 18 16 15 14 13 13
14 13 12 12 11 10 10 10 10 11 12 13 15 16 18 19 20 21 21 22 22 23 24 25 25 24 24 23 21 20 17 15 13 12 11 10 10 10
6 6 6 6 6 6 6 7 8 10 12 13 15 17 18 19 20 21 21 21 22 22 23 24 24 23 22 21 19 17 15 13 11 9 9 8 8 7
4 5 5 5 5 5 6 8 9 11 13 14 16 17 19 19 20 21 21 21 22 22 22 22 22 21 21 20 19 17 15 13 11 10 8 8 7 7
8 8 8 7 7 8 9 10 11 13 14 16 17 18 19 20 20 21 21 21 21 21 22 22 21 21 20 20 19 18 16 14 13 11 11 10 9 8
10 10 9 9 10 10 11 12 13 14 16 17 18 19 20 20 21 21 21 20 20 21 21 22 22 21 21 21 20 19 18 16 15 14 14 13 12 11
11 11 11 11 12 12 13 14 15 16 18 18 19 19 20 21 21 21 20 20 19 20 21 22 22 22 21 21 21 20 20 19 18 17 16 16 15 14
12 12 12 13 13 13 14 15 17 18 19 20 20 20 21 22 21 20 20 19 19 20 21 21 21 21 22 22 22 22 22 21 21 20 19 18 17 17
12 13 13 13 14 15 16 17 18 18 19 20 20 21 22 22 21 21 20 19 19 20 20 20 20 21 22 22 22 23 23 22 22 22 21 21 20 20
12 13 13 14 15 16 16 17 18 19 20 20 20 21 21 22 21 21 20 19 19 19 19 20 20 21 21 22 22 22 23 23 23 23 23 23 23 23
13 13 14 14 15 16 17 17 18 19 20 20 20 21 21 21 21 21 20 19 19 19 19 19 19 20 20 21 22 22 22 23 23 23 23 23 23 24
Wind_Direction
288 289 288 289 289 289 289 289 289 289 289 289 289 289 288 288 288 287 287 287 287 286 286 286 285 284 283 283 282 281 280 279 278 276 274 273 271 269
288 289 289 289 289 290 290 290 289 289 289 288 288 288 288 288 289 289 289 288 288 288 287 287 286 285 284 283 282 281 280 278 277 275 274 272 271 269
288 289 289 289 289 289 289 289 289 289 289 288 288 289 289 290 290 291 290 290 290 290 289 289 288 287 285 284 283 282 280 279 278 276 275 273 271 269
289 289 289 289 288 288 289 289 289 289 289 289 290 290 291 291 292 293 293 292 292 292 292 291 290 288 287 285 284 283 282 280 279 277 275 273 271 268
289 289 288 288 288 288 288 288 289 289 290 291 291 292 293 294 295 295 295 295 295 294 294 293 291 290 289 289 288 287 285 283 280 279 276 274 271 269
288 287 287 288 288 288 289 289 290 291 291 292 293 294 294 295 296 297 297 298 297 297 297 295 294 293 292 292 292 290 288 286 283 281 278 276 273 271
288 288 288 288 289 290 290 291 291 292 293 294 295 295 296 297 299 300 300 301 300 301 301 300 300 299 297 297 296 294 291 289 286 283 280 277 274 272
289 289 289 290 290 290 291 292 292 293 295 296 296 297 298 300 302 304 305 305 304 304 305 304 304 303 301 300 299 297 294 292 288 285 282 278 275 272
289 289 290 290 291 292 292 293 294 296 296 296 297 299 302 304 306 308 310 310 310 310 310 308 307 307 305 304 302 299 297 294 291 287 283 280 276 274
289 289 290 291 292 293 294 296 298 298 298 298 300 302 305 307 310 313 313 315 315 315 315 313 311 310 308 307 304 302 299 296 293 288 285 281 278 275
289 289 290 291 293 295 297 299 300 300 302 303 306 308 311 315 317 317 318 319 319 319 319 318 316 315 313 311 309 306 303 299 295 292 288 284 280 276
291 291 292 293 295 297 300 302 304 307 310 313 315 317 320 322 322 323 323 323 323 323 323 322 320 319 317 316 314 312 309 304 301 296 292 288 283 278
294 294 295 297 300 304 307 309 312 314 318 322 326 329 330 330 329 329 328 329 329 329 329 328 327 326 324 323 321 318 315 311 307 302 299 295 289 284
296 297 300 305 311 315 320 325 328 332 336 339 340 340 339 338 337 336 335 335 335 335 335 335 335 335 335 335 333 331 329 327 321 315 312 307 300 293
311 317 326 333 340 346 350 352 353 353 352 350 349 348 347 346 346 344 343 343 343 343 343 344 345 346 347 348 348 348 349 348 344 340 337 332 324 313
29 35 38 38 33 29 23 17 10 4 2 360 357 355 354 353 352 351 351 350 350 351 353 354 355 357 359 1 4 7 8 9 9 8 7 4 0 352
68 67 62 58 53 47 37 29 22 16 11 7 3 0 0 360 360 360 359 360 0 2 2 4 6 8 11 15 18 21 23 26 27 30 27 23 19 14
76 73 71 66 58 48 39 32 25 20 14 10 8 7 5 5 5 5 5 7 10 13 14 15 17 20 24 27 29 33 36 38 40 41 40 40 39 39
77 74 70 63 54 45 38 32 26 21 17 14 12 10 9 9 9 10 12 14 17 20 21 23 27 30 32 35 38 42 44 45 46 44 45 46 50 51
73 69 64 57 50 42 36 31 25 22 19 17 16 15 15 15 16 17 18 21 24 26 27 30 34 36 39 42 44 47 49 50 49 50 52 54 55 55
68 63 57 51 45 39 34 29 25 23 21 20 19 19 20 20 22 23 24 27 30 32 34 37 40 42 45 47 49 51 51 52 53 54 56 57 57 57
60 55 51 46 40 35 32 29 27 25 23 22 22 22 22 23 25 27 30 32 35 36 38 42 45 47 49 50 51 52 53 54 56 57 59 61 62 63
54 50 46 40 36 33 32 30 29 26 25 24 24 24 25 28 30 31 34 37 39 40 42 45 48 50 51 52 52 53 54 55 57 59 60 62 64 64
Height
5766 5763 5760 5757 5753 5750 5746 5743 5740 5736 5731 5725 5720 5715 5710 5706 5702 5697 5692 5687 5682 5677 5672 5668 5663 5658 5655 5651 5648 5645 5642 5639 5637 5635 5634 5633 5633 5633
5752 5749 5745 5741 5738 5734 5730 5726 5722 5719 5715 5710 5703 5698 5693 5688 5683 5679 5674 5668 5663 5658 5653 5648 5643 5638 5634 5631 5628 5624 5621 5619 5616 5614 5613 5612 5611 5611
5736 5732 5728 5725 5721 5717 5713 5709 5705 5701 5698 5693 5687 5681 5676 5670 5665 5660 5655 5650 5645 5639 5634 5629 5624 5620 5616 5612 5609 5606 5603 5600 5597 5595 5593 5592 5591 5592
5719 5715 5711 5707 5703 5700 5696 5692 5688 5684 5681 5677 5671 5665 5659 5654 5649 5643 5637 5632 5627 5622 5617 5612 5607 5603 5599 5595 5592 5588 5585 5582 5580 5577 5576 5575 5574 5573
5702 5698 5694 5690 5686 5683 5679 5675 5672 5668 5664 5660 5655 5649 5644 5638 5633 5628 5622 5616 5611 5606 5601 5597 5592 5588 5583 5580 5577 5573 5569 5566 5564 5562 5560 5558 5558 5557
5686 5682 5678 5674 5670 5667 5663 5660 5656 5652 5648 5645 5640 5635 5630 5624 5619 5615 5609 5602 5597 5592 5587 5583 5579 5575 5571 5567 5564 5560 5556 5553 5550 5547 5545 5544 5543 5543
5670 5666 5662 5659 5655 5652 5649 5645 5641 5638 5634 5630 5626 5622 5617 5612 5607 5602 5597 5592 5586 5581 5576 5571 5567 5564 5560 5556 5552 5548 5545 5541 5538 5535 5533 5532 5531 5530
5655 5651 5647 5644 5641 5637 5634 5631 5629 5626 5622 5619 5615 5611 5606 5601 5597 5592 5587 5583 5579 5574 5569 5563 5558 5554 5550 5546 5542 5538 5534 5531 5527 5524 5522 5520 5519 5519
5641 5637 5634 5631 5629 5626 5623 5620 5618 5615 5612 5609 5605 5602 5598 5594 5589 5584 5580 5575 5571 5567 5562 5557 5551 5547 5542 5538 5534 5529 5525 5521 5518 5515 5512 5510 5509 5508
5628 5625 5622 5620 5618 5616 5613 5611 5608 5606 5603 5600 5598 5594 5591 5587 5582 5578 5574 5570 5564 5560 5556 5551 5545 5540 5534 5530 5525 5521 5516 5512 5508 5505 5503 5501 5500 5498
5617 5615 5613 5611 5609 5607 5605 5602 5600 5598 5596 5594 5591 5588 5585 5581 5577 5573 5569 5565 5560 5554 5549 5544 5539 5533 5527 5522 5517 5513 5508 5504 5500 5497 5494 5492 5491 5490
5607 5606 5605 5603 5602 5600 5599 5597 5595 5593 5591 5589 5586 5583 5580 5576 5572 5568 5564 5560 5555 5550 5544 5539 5533 5527 5522 5515 5510 5505 5501 5496 5493 5490 5488 5486 5484 5483
5600 5599 5599 5598 5597 5596 5595 5593 5592 5590 5588 5586 5583 5580 5576 5572 5568 5564 5560 5555 5550 5545 5539 5534 5528 5521 5516 5510 5505 5499 5495 5491 5487 5485 5482 5481 5479 5478
5595 5595 5595 5594 5594 5593 5592 5591 5590 5588 5586 5583 5580 5577 5573 5569 5565 5560 5556 5551 5546 5541 5535 5529 5523 5517 5511 5506 5500 5495 5490 5487 5483 5481 5479 5477 5475 5474
5592 5592 5593 5593 5593 5592 5591 5590 5589 5587 5585 5582 5579 5575 5571 5567 5562 5558 5553 5548 5543 5537 5532 5526 5520 5514 5509 5503 5498 5493 5489 5485 5482 5479 5477 5475 5474 5472
5592 5593 5593 5593 5592 5592 5591 5590 5588 5587 5584 5581 5578 5574 5570 5565 5561 5556 5551 5546 5541 5536 5530 5524 5519 5513 5508 5502 5497 5492 5488 5485 5482 5479 5477 5475 5473 5471
5594 5594 5594 5594 5594 5593 5592 5591 5589 5587 5584 5581 5577 5573 5569 5564 5559 5555 5550 5545 5540 5535 5530 5524 5519 5513 5508 5503 5498 5494 5490 5486 5483 5481 5478 5476 5474 5472
5597 5597 5597 5596 5596 5595 5593 5592 5590 5587 5584 5581 5577 5573 5568 5564 5559 5554 5549 5545 5540 5535 5530 5525 5520 5515 5510 5505 5501 5497 5493 5489 5486 5484 5481 5479 5476 5474
5600 5600 5600 5599 5598 5597 5595 5593 5591 5588 5585 5581 5577 5573 5568 5564 5559 5554 5550 5545 5541 5537 5532 5527 5522 5518 5514 5509 5505 5501 5497 5494 5491 5488 5485 5482 5479 5477
5604 5603 5603 5602 5601 5599 5597 5595 5592 5589 5585 5582 5578 5573 5569 5564 5560 5555 5551 5547 5543 5539 5534 5530 5526 5522 5518 5514 5510 5506 5502 5499 5496 5493 5490 5487 5484 5482
5608 5607 5606 5604 5603 5601 5599 5596 5593 5590 5587 5583 5579 5575 5570 5566 5561 5557 5553 5549 5545 5541 5538 5534 5530 5526 5522 5519 5516 5512 5509 5505 5502 5499 5496 5493 5490 5488
5611 5610 5609 5607 5605 5603 5601 5598 5595 5592 5588 5584 5580 5576 5572 5568 5564 5559 5555 5552 5548 5545 5541 5538 5534 5531 5528 5525 5521 5518 5515 5512 5508 5505 5502 5500 5498 5495
5614 5613 5611 5610 5608 5605 5603 5600 5597 5594 5590 5586 5583 5579 5574 5570 5566 5562 5558 5555 5552 5548 5545 5542 5539 5536 5533 5530 5527 5524 5521 5518 5515 5512 5510 5507 5505 5502